Regional Weather Roundup
Issued by NWS

Home | Current Version | Previous Version | Text Only | Print | Product List | Glossary Off
Versions: 1 2 3 4 5 6 7 8 9 10 11 12 13 14 15 16 17 18 19 20 21 22 23 24 25 26 27 28 29 30 31 32 33 34 35 36 37 38 39 40 41 42 43 44 45 46 47 48 49 50

000
ASUS44 KMEG 181210
RWRTN
TENNESSEE HOURLY STATE WEATHER ROUNDUP
NATIONAL WEATHER SERVICE MEMPHIS TN
600 AM CST THU DEC 18 2014

TNZ002-004-019-021-049-052-054-088>092-181300-
WEST TENNESSEE

CITY           SKY/WX    TMP DP  RH WIND       PRES   REMARKS
MEMPHIS INTL   CLOUDY    38  35  89 E5        30.22R WCI  34
NWS MEMPHIS      N/A     37 N/A N/A MISG        N/A
JACKSON        CLOUDY    36  34  92 CALM      30.23F
DYERSBURG      CLOUDY    36  25  64 E3        30.25S
UNION CITY     CLOUDY    32  32 100 CALM      30.24S
PARIS          CLOUDY    30  28  93 CALM      30.25R
HUNTINGDON     CLOUDY    32  30  92 E3        30.25R
LEXINGTON      CLOUDY    34  34 100 NE3       30.22S
SAVANNAH       CLOUDY    36  36 100 CALM      30.22S
$$

TNZ008-025-027-028-033-062-065-066-181300-
NORTH MIDDLE TENNESSEE

CITY           SKY/WX    TMP DP  RH WIND       PRES   REMARKS
NASHVILLE      LGT RAIN  33  31  92 CALM      30.26S
CLARKSVILLE    FRZ RAIN  32  30  92 SE6       30.25S WCI  26
SMYRNA         CLOUDY    33  31  93 CALM      30.26S
COOKEVILLE     PTCLDY    30  30 100 CALM      30.21F
CROSSVILLE     CLOUDY    33  28  81 CALM      30.19S
$$

TNZ061-075-076-078-094-096-097-181300-
SOUTH MIDDLE TENNESSEE

CITY           SKY/WX    TMP DP  RH WIND       PRES   REMARKS
FAYETTEVILLE   MOCLDY    34  28  80 MISG      30.21R
TULLAHOMA        N/A     32  30  93 E8        30.19F WCI  25
WINCHESTER     CLOUDY    34  30  86 NE5       30.21F WCI  30
MCMINNVILLE    CLOUDY    32  32 100 CALM      30.21F
SHELBYVILLE    MOCLDY    34  34 100 NE3       30.22F
$$

TNZ017-018-042-046-047-181300-
NORTHEAST TENNESSEE

CITY           SKY/WX    TMP DP  RH WIND       PRES   REMARKS
TRI CITIES     MOCLDY    26  26 100 CALM      30.20S FOG
ELIZABETHTON   PTSUNNY   25  23  93 CALM      30.21R
$$

TNZ012-013-036-069-073-074-181300-
CENTRAL EAST TENNESSEE

CITY           SKY/WX    TMP DP  RH WIND       PRES   REMARKS
KNOXVILLE      LGT RAIN  34  29  82 E3        30.23S
OAK RIDGE      LGT RAIN  35  29  78 CALM      30.24S
GATLINBURG     SUNNY     28  27  93 CALM      30.22F
MORRISTOWN     PTSUNNY   30  28  93 CALM      30.21S
$$

TNZ083-085-099-181300-
SOUTHEAST TENNESSEE

CITY           SKY/WX    TMP DP  RH WIND       PRES   REMARKS
CHATTANOOGA    CLOUDY    38  30  73 NE7       30.23R WCI  33
$$

SKY/WX REPORTED AS FAIR MEANS FEW OR NO CLOUDS BELOW
12 THOUSAND FEET.




USA.gov is the U.S. government's official web portal to all federal, state and local government web resources and services.